Location: Ballingbuur
(53.0000°N, 5.7667°E)
Time: 07:17:38
(UTC+00:00)

Cosmos 1408 Rocket - Visible Passes

Search period start: 14 April 2021 00:00
Search period end: 24 April 2021 00:00
Orbit: 600 x 632 km, 82.6° (Epoch: 14 April)

Date Brightness Start Highest point End Pass type
(mag) Time Alt. Az. Time Alt. Az. Time Alt. Az.
14 Apr 5.0 20:56:28 10° NNE 20:59:53 22° ENE 21:00:30 22° ENE visible
14 Apr 4.2 22:33:48 10° NNW 22:37:36 48° WNW 22:37:36 48° WNW visible
15 Apr 4.4 21:12:27 10° N 21:16:26 34° ENE 21:16:53 33° E visible
15 Apr 4.9 22:50:23 10° NNW 22:53:59 30° W 22:53:59 30° W visible
16 Apr 3.6 21:28:37 10° N 21:32:53 56° ENE 21:33:17 53° E visible
16 Apr 5.5 23:07:13 10° NW 23:10:17 19° W 23:10:23 19° W visible
17 Apr 5.6 20:08:24 10° NNE 20:10:46 14° ENE 20:12:36 12° E visible
17 Apr 3.3 21:44:54 10° NNW 21:49:15 88° WSW 21:49:42 72° S visible
17 Apr 6.0 23:24:41 10° WNW 23:26:19 12° W 23:26:47 12° W visible
18 Apr 5.1 20:24:02 10° NNE 20:27:25 22° ENE 20:29:01 18° E visible
18 Apr 3.9 22:01:19 10° NNW 22:05:32 52° W 22:06:07 48° SW visible
19 Apr 4.5 20:40:01 10° N 20:43:58 33° ENE 20:45:27 26° ESE visible
19 Apr 4.8 22:17:53 10° NNW 22:21:44 32° W 22:22:33 29° WSW visible
20 Apr 3.8 20:56:09 10° N 21:00:25 54° ENE 21:01:55 35° SE visible
20 Apr 5.5 22:34:42 10° NW 22:37:51 20° W 22:39:01 18° WSW visible
21 Apr 5.6 19:36:01 10° NNE 19:38:17 14° ENE 19:40:34 10° E visible
21 Apr 3.4 21:12:26 10° N 21:16:48 89° E 21:18:23 39° S visible
21 Apr 6.0 22:52:04 10° NW 22:53:53 13° W 22:55:29 11° WSW visible
22 Apr 5.1 19:51:37 10° NNE 19:54:56 21° ENE 19:57:46 12° ESE visible
22 Apr 4.0 21:28:51 10° NNW 21:33:05 55° W 21:34:51 32° SSW visible
23 Apr 4.5 20:07:34 10° N 20:11:30 32° ENE 20:14:16 17° SE visible
23 Apr 4.9 21:45:24 10° NNW 21:49:18 33° W 21:51:22 21° SW visible
